Preview of NWS' New Version of Forecast
This preview is not operational and should not be used for support decisions.

Regional Weather Roundup (RWR)

Issued by National Weather Service (NWS)

                            
000
ASUS46 KSEW 222310
RWRWA 

WASHINGTON REGIONAL WEATHER ROUNDUP
NATIONAL WEATHER SERVICE SEATTLE WA
400 PM PDT WED MAY 22 2019

NOTE:"FAIR" INDICATES FEW OR NO CLOUDS BELOW 12,000 FEET WITH NO 
SIGNIFICANT WEATHER AND/OR OBSTRUCTIONS TO VISIBILITY.

WAZ507-509-555>559-230000-
SEATTLE, TACOMA, EVERETT, AND VICINITY
  
CITY           SKY/WX    TMP DP  RH WIND       PRES   REMARKS
EVERETT        MOSUNNY   69  52  54 N10       29.99F                  
BOEING FIELD   MOSUNNY   72  49  44 NW9       29.97F                  
RENTON         SUNNY     73  53  49 N6        29.97S                  
SEATAC AIRPORT MOSUNNY   74  51  44 NW10      29.99S                  
JBLM-MCCHORD   MOSUNNY   73  59  60 NW8       29.99S                  
PUYALLUP       FAIR      73  54  49 VRB6      29.99S                  
BREMERTON      MOSUNNY   72  54  53 VRB5      29.98S                  
JBLM-FT LEWIS  NOT AVBL                                               
TACOMA NARROWS MOSUNNY   70  51  51 W6        29.98F                  
$$
 
WAZ001-503-506-510-514-515-230000-
NORTH INTERIOR
  
CITY           SKY/WX    TMP DP  RH WIND       PRES   REMARKS
BELLINGHAM     SUNNY     70  53  54 NW3       29.97S                  
FRIDAY HARBOR  SUNNY     67  54  63 SE5       29.99S                  
EASTSOUND      MOSUNNY   64  54  68 CALM      29.97F                  
PORT ANGELES   SUNNY     67  50  54 VRB6      30.00S                  
EDIZ HOOK      FAIR      66  51  57 CALM      29.99S                  
PORT TOWNSEND  FAIR      73  50  43 NW8       29.97S                  
NAS WHIDBEY    PTSUNNY   65  53  65 W7        30.02S                  
ARLINGTON      PTSUNNY   72  55  55 CALM      29.97F                  
BURLINGTON     NOT AVBL                                               
$$
 
WAZ020-022-039-040-504-511-512-230000-
SOUTHWEST INTERIOR
  
CITY           SKY/WX    TMP DP  RH WIND       PRES   REMARKS
SHELTON        PTSUNNY   72  53  51 W12       29.96S                  
OLYMPIA        MOSUNNY   75  48  38 N6        29.98S                  
CHEHALIS       FAIR      73  54  49 VRB5      29.98S                  
KELSO          SUNNY     71  56  58 W14       29.98S                  
VANCOUVER      CLOUDY    70  51  51 E5        29.95F                  
SCAPPOOSE, OR  MOSUNNY   76  51  41 N12       29.94F                  
PORTLAND, OR   PTSUNNY   73  51  46 E5        29.96F                  
$$
 
WAZ021-516-517-230000-
WASHINGTON COAST
  
CITY           SKY/WX    TMP DP  RH WIND       PRES   REMARKS
FORKS          SUNNY     61  54  77 SW10      30.00F                  
HOQUIAM        CLOUDY    58  54  86 W9        30.03S FOG              
ASTORIA, OR    CLOUDY    58  52  80 W7        30.04S                  
$$
 
WAZ019-023-024-040-567>569-230000-
CASCADE MOUNTAINS AND COLUMBIA GORGE
  
CITY           SKY/WX    TMP DP  RH WIND       PRES   REMARKS
STAMPEDE PASS  CLOUDY    56  46  69 CALM      30.03R                  
TROUTDALE, OR  CLOUDY    68  53  58 VRB5      29.96F                  
HOOD RIVER, OR CLOUDY    68  52  56 W12G17    29.93S                  
THE DALLES, OR CLOUDY    68  50  52 NW13      29.91R                  
$$

WAZ026-027-041>044-520-521-230000-
EAST SLOPES
  
CITY           SKY/WX    TMP DP  RH WIND       PRES   REMARKS
OMAK           PTSUNNY   72  39  30 SW3       29.96S                  
WENATCHEE      CLOUDY    69  37  30 CALM      29.96S                  
ELLENSBURG     CLOUDY    66  42  41 E6        29.97R                  
YAKIMA         CLOUDY    69  38  32 NE12      29.95S                  
SUNNYSIDE ARPT CLOUDY    70  45  40 N8        29.92S                  
YAKIMA TC      MOCLDY    67  35  31 NE14      29.94                   
$$

WAZ028-034-035-230000-
COLUMBIA BASIN
  
CITY           SKY/WX    TMP DP  RH WIND       PRES   REMARKS
EPHRATA        CLOUDY    72  32  23 NE13      29.95S                  
MOSES LAKE     CLOUDY    73  34  23 NE14      29.94S                  
PASCO          PTSUNNY   78  36  21 N16G23    29.88F                  
RICHLAND ARPT  MOCLDY    76  38  25 N12G24    29.88                   
HERMISTON, OR  PTSUNNY   72  42  34 N13G20    29.87F                  
$$

WAZ036>038-230000-
NORTHEAST WASHINGTON
  
CITY           SKY/WX    TMP DP  RH WIND       PRES   REMARKS
SPOKANE GEIGER PTSUNNY   68  30  24 E12       29.95F                  
SPOKANE FELTS  PTSUNNY   71  32  23 E10G18    29.95R                  
FAIRCHILD AFB  PTSUNNY   67  33  28 NE20G25   29.95S                  
COEURDALENE,ID PTSUNNY   68  33  27 E7        29.96S                  
DEER PARK      MOSUNNY   70  32  24 E12G18    29.96F                  
$$

WAZ029>033-230000-
SOUTHEAST WASHINGTON
  
CITY           SKY/WX    TMP DP  RH WIND       PRES   REMARKS
PULLMAN        MOSUNNY   68  30  24 E24G31    29.93S                  
LEWISTON, ID   MOSUNNY   71  33  24 E14       29.87S                  
WALLA WALLA    PTSUNNY   70  40  33 NE9G20    29.87R                  
PENDLETON, OR  PTSUNNY   62  49  62 S10       29.88F                  
$$